Location: Newark
(31.5350°N, 35.0986°E)
Time: 22:11:41
(UTC+00:00)

Vanguard 1 - Pass Details

Date: 01 October 2019
Orbit: 653 x 3830 km, 34.3° (Epoch: 14 October)

Event Time Altitude Azimuth Distance (km) Brightness Sun altitude
Rises 21:05:54 0° 248° (WSW) 6,237 14.1 -61.3°
Enters shadow 21:06:45 - 248° (WSW) 6,064 14.0 -61.3°
Reaches altitude 10° 21:09:22 10° 248° (WSW) 5,556 - -61.4°
Maximum altitude 21:28:30 87° 162° (SSE) 3,698 - -61.8°
Exits shadow 21:39:39 44° 76° (ENE) 4,674 13.2 -61.7°
Drops below altitude 10° 21:52:19 10° 76° (ENE) 6,647 14.4 -61.3°
Sets 21:56:58 0° 77° (ENE) 7,443 14.7 -61.1°
